Location: Boiro
(42.6475°N, 8.8834°W)
Time: 09:13:46
(UTC+02:00)

First-Move - Pass Details

Date: 21 April 2024
Orbit: 538 x 600 km, 97.7° (Epoch: 20 May)

Event Time Altitude Azimuth Distance (km) Brightness Sun altitude
Rises 05:53:27 0° 14° (NNE) 2,865 ? -18.9°
Reaches altitude 10° 05:55:38 10° 17° (NNE) 1,963 ? -18.5°
Maximum altitude 05:59:54 70° 102° (ESE) 651 ? -17.9°
Enters shadow 06:02:45 20° 182° (S) 1,399 ? -17.5°
